Theta_e
276 276 276 277 278 277 277 277 278 279 278 277 276 276 276 276 276 277 277 277 277 277 277 277 278 278 278 277 278 278 277 277 277 278 280 279 278 278 278 278 278 278 278 278 279 279 279 279 279 279 279 279 278 278 278 279 279 279 279 279 279 279 279 279 279 279 279 279 279
275 276 277 279 279 278 277 277 278 278 278 277 277 277 276 277 277 277 277 277 277 278 278 278 278 278 277 277 278 278 277 277 277 278 278 278 278 278 278 278 277 278 278 278 278 278 279 279 279 279 279 278 277 277 277 278 278 278 278 278 278 278 278 278 279 279 279 279 279
275 276 276 276 276 276 276 276 276 276 276 276 277 277 277 277 277 277 277 277 277 277 278 278 278 277 277 277 277 278 277 277 278 278 278 278 278 278 278 277 277 278 278 278 278 278 279 279 279 279 279 278 277 276 276 277 277 277 277 277 278 278 278 278 278 278 278 278 278
275 275 275 275 275 275 275 276 276 275 276 277 276 277 277 277 278 278 278 277 277 277 278 278 278 278 278 278 278 277 278 279 279 278 278 278 278 278 278 277 277 277 277 277 278 278 278 278 279 279 279 277 276 276 276 276 277 277 277 277 277 277 278 278 278 278 278 277 278
275 275 275 275 275 275 275 275 275 276 276 277 277 277 277 277 278 278 278 278 278 278 278 278 278 278 278 278 278 277 278 278 280 279 278 278 278 278 278 277 277 277 277 277 277 277 278 278 279 279 278 277 277 276 276 276 276 276 277 277 277 277 277 277 277 277 277 277 277
275 275 275 275 275 275 276 276 276 276 276 277 276 277 277 278 278 278 278 278 278 278 278 279 280 280 279 278 277 277 277 277 278 278 278 277 278 278 277 277 277 277 277 277 277 277 277 277 278 279 278 278 277 276 276 275 276 276 276 277 277 277 277 277 277 277 277 276 276
275 275 275 275 275 275 275 276 276 276 276 276 276 276 277 277 277 277 277 278 278 278 279 280 279 279 278 277 277 277 277 278 278 277 277 278 278 278 278 277 277 277 277 277 277 277 277 277 278 278 279 279 278 277 276 276 276 276 276 276 276 277 277 276 276 276 276 275 275
275 275 275 275 275 275 275 276 276 276 276 277 276 276 276 277 277 277 277 278 278 278 279 279 277 277 277 277 277 277 277 277 277 277 277 277 277 277 277 277 277 277 277 277 277 277 277 277 277 278 278 278 278 277 276 275 275 275 275 275 276 276 276 276 276 276 275 274 274
275 275 275 276 276 276 276 276 276 276 276 276 276 276 277 277 277 277 278 278 279 279 278 278 277 277 277 277 277 277 277 277 277 277 277 277 277 277 277 278 277 277 277 277 277 277 277 277 277 277 277 277 277 277 276 275 274 274 274 275 275 276 276 276 275 275 275 274 273
275 275 275 275 276 276 276 276 276 276 276 276 276 277 278 279 279 278 278 278 279 279 278 277 277 277 277 277 277 277 277 277 277 277 277 278 278 277 277 278 277 277 277 277 277 277 277 277 277 277 276 277 276 276 276 275 274 274 274 275 275 275 275 275 275 275 274 274 273
275 275 275 275 276 276 277 276 276 277 277 276 276 277 277 279 278 278 278 279 278 278 277 277 277 277 277 277 277 277 278 278 277 277 277 277 278 277 277 277 277 277 277 277 277 277 277 277 276 276 276 276 276 276 275 275 275 274 274 275 275 274 274 274 274 274 274 274 274
275 275 275 275 276 276 276 276 276 276 276 276 276 277 277 277 277 278 278 278 277 277 277 277 277 277 277 277 277 278 278 278 277 277 277 277 277 277 277 278 277 277 276 277 277 277 277 277 276 275 275 275 276 276 276 275 275 274 274 274 274 274 273 273 274 274 274 274 274
275 275 275 275 276 276 276 275 276 276 276 276 276 276 277 277 277 278 278 277 277 277 277 277 278 278 277 277 277 278 278 278 277 278 278 277 278 277 277 277 277 276 276 277 277 277 277 276 276 275 275 275 276 276 276 275 275 274 274 274 273 273 273 272 273 273 274 274 274
275 275 275 275 275 275 275 275 276 276 276 276 276 276 276 276 277 278 278 277 277 277 277 277 278 278 278 278 278 278 278 278 278 277 277 278 278 278 277 277 276 276 276 277 277 277 276 276 275 275 275 275 275 275 275 275 275 275 274 274 273 272 272 272 273 273 273 273 273
275 275 275 275 275 275 275 275 276 276 276 276 276 276 276 277 277 278 278 277 277 277 277 277 278 278 278 278 278 278 278 278 278 277 277 278 278 278 277 277 276 276 276 277 277 276 276 276 275 275 275 275 275 275 275 275 275 275 275 274 273 272 272 272 273 273 273 273 273
275 275 275 275 275 275 275 275 276 276 276 276 276 276 276 277 277 278 278 277 277 277 277 277 277 277 278 278 278 278 278 278 277 277 278 278 277 277 277 277 277 277 276 276 276 276 276 276 276 276 275 275 275 275 275 275 275 275 275 274 274 273 272 273 273 273 273 273 273
275 275 275 275 275 275 275 275 275 276 276 276 276 276 277 277 277 278 278 278 278 277 277 277 277 277 277 278 278 278 278 277 277 278 278 278 277 277 278 278 278 277 276 275 275 276 276 276 276 276 276 275 275 275 275 275 275 276 275 275 274 273 273 274 274 273 273 273 273
274 275 275 275 275 275 275 275 275 276 276 276 276 276 277 277 277 277 278 278 278 277 277 277 277 277 277 277 277 278 278 277 277 277 277 277 277 278 278 279 278 277 276 275 275 275 276 276 276 276 276 276 276 276 276 276 276 276 276 276 274 273 273 273 273 273 273 273 274
274 275 275 275 275 275 275 276 276 276 276 276 276 276 276 276 277 277 277 277 278 277 277 276 277 277 276 276 276 277 278 278 277 277 277 277 277 278 278 278 278 277 276 275 275 276 276 276 276 276 276 276 276 276 277 277 277 277 277 276 274 274 273 273 273 273 273 273 273
274 274 275 275 275 275 275 276 276 276 276 276 276 276 276 277 277 277 276 276 277 277 277 276 276 276 276 276 276 276 277 278 277 277 277 277 277 277 278 278 277 276 276 276 276 276 276 276 276 277 277 277 277 277 277 278 278 277 277 275 274 274 274 274 273 273 273 273 273
274 275 275 275 275 275 275 276 276 276 276 276 276 276 276 276 276 276 276 277 277 277 276 276 276 276 276 276 276 276 276 278 277 277 277 277 277 277 277 277 277 276 276 276 276 276 276 276 276 276 277 277 277 278 278 278 278 277 276 275 275 275 275 275 274 273 272 272 272
275 275 275 275 275 275 275 276 276 276 276 276 276 276 276 277 277 277 277 277 277 277 276 276 276 276 276 276 276 276 276 277 277 277 277 277 277 278 278 278 277 276 276 276 276 276 276 276 276 276 277 277 278 279 279 279 278 277 276 276 276 276 276 275 274 273 273 272 272
275 275 275 275 275 276 277 277 276 276 276 276 276 276 276 276 277 277 277 276 277 277 276 276 276 276 276 276 276 276 276 277 277 277 277 277 277 277 277 277 276 276 276 276 276 276 276 277 277 277 278 279 280 280 280 279 278 277 276 276 276 276 276 275 274 273 273 272 272
275 275 275 276 276 276 276 276 276 276 276 276 276 276 276 276 276 276 276 276 276 276 276 276 276 276 276 276 276 276 276 276 276 276 277 277 277 277 277 277 276 276 276 277 278 279 279 280 280 280 280 281 281 281 279 278 278 277 277 276 276 276 275 274 274 273 273 272 272
275 275 276 276 276 275 275 275 275 275 276 276 276 276 276 276 276 276 276 276 276 276 276 276 276 276 276 276 276 276 276 276 276 276 276 276 276 276 276 277 277 277 277 278 282 284 285 285 284 283 282 282 282 281 279 278 277 277 277 277 277 276 275 274 274 273 273 272 271
275 275 275 275 275 275 275 275 275 275 276 276 276 276 276 276 276 276 276 276 276 276 276 276 276 277 278 277 276 276 276 276 276 275 275 276 276 276 276 277 277 277 277 280 284 285 286 287 287 286 284 283 282 281 280 278 278 278 278 278 277 277 276 275 274 274 273 272 271
275 275 275 275 275 274 274 275 275 275 275 276 276 276 276 276 276 276 276 276 276 276 276 276 276 278 279 277 276 275 275 276 275 275 275 275 275 276 276 277 277 277 278 282 285 286 287 287 288 287 286 284 283 282 281 280 279 279 278 278 277 277 276 275 275 274 274 272 271
275 274 274 274 274 274 274 274 275 275 275 275 275 276 276 276 276 276 276 276 276 276 276 276 277 277 277 276 275 275 275 275 275 276 275 275 276 276 276 277 277 278 281 284 286 287 287 288 288 288 288 286 284 283 282 281 280 279 278 278 277 277 276 275 275 275 274 273 272
273 273 273 273 273 273 274 274 275 275 275 275 275 276 276 276 276 276 276 276 276 276 276 277 277 277 276 276 276 276 275 275 276 276 275 275 275 276 276 277 277 279 282 285 286 287 287 288 288 289 289 288 286 284 282 281 280 279 278 278 277 277 276 276 276 275 274 274 273
272 272 272 272 273 273 274 274 275 275 275 276 276 276 276 276 276 276 276 276 276 276 277 277 277 276 276 276 276 276 276 276 276 276 275 275 276 276 277 278 278 279 282 285 286 287 288 288 289 289 289 289 287 285 283 281 280 279 278 278 277 277 276 276 276 276 275 275 273
272 272 272 273 273 273 274 275 275 275 275 276 276 276 276 276 276 276 276 276 277 278 278 278 277 276 276 276 276 276 276 276 276 276 276 276 277 277 277 277 277 279 282 285 286 287 288 289 289 289 289 290 288 285 282 280 279 278 278 277 277 277 277 277 277 277 276 275 274
272 272 272 273 273 273 274 275 275 275 275 275 275 276 276 276 276 276 276 277 277 277 277 277 276 276 276 276 276 276 276 276 276 276 277 277 277 277 277 278 278 279 282 286 287 288 288 289 289 289 290 290 288 285 282 279 278 278 278 277 277 277 278 278 278 277 277 276 274
272 272 272 273 273 273 274 274 275 275 275 275 275 275 276 276 276 276 276 277 277 277 276 276 276 276 276 276 276 276 276 276 277 277 278 278 277 277 277 278 278 280 284 286 287 288 288 289 289 289 290 290 288 285 282 280 279 279 278 278 278 278 278 278 278 278 277 276 275
271 272 272 273 273 274 274 274 275 275 275 275 275 276 276 276 276 276 276 277 277 277 276 276 276 276 276 276 276 276 276 278 277 277 277 277 277 277 278 278 278 281 285 287 288 288 289 289 289 289 289 290 288 285 283 281 280 280 279 279 279 279 279 279 279 278 278 277 276
271 272 273 273 273 274 274 274 275 275 275 275 275 276 276 276 276 276 276 278 278 278 277 276 276 276 276 276 276 276 276 277 277 277 277 277 277 277 278 278 279 281 285 287 288 288 289 289 289 289 289 289 287 285 283 282 281 281 280 280 280 280 279 279 279 278 278 277 277
272 273 273 273 273 274 274 274 274 274 275 275 275 275 275 276 276 276 277 279 278 277 276 276 276 276 276 276 276 276 277 276 276 277 277 278 278 278 277 278 278 281 284 287 287 288 289 289 289 290 289 288 286 285 284 283 282 281 281 281 281 280 280 279 279 279 278 278 277
273 273 273 273 273 274 274 274 274 274 274 275 275 275 275 276 276 276 277 278 277 276 276 276 276 276 276 275 276 276 277 277 277 277 277 279 278 278 278 278 278 280 283 286 287 288 288 289 289 290 289 287 285 284 284 283 282 281 281 281 281 281 280 280 280 279 278 278 278
273 273 273 273 274 274 274 274 274 274 274 275 275 275 276 276 276 276 277 278 277 276 276 275 275 275 276 276 276 277 277 277 277 278 278 278 278 278 278 278 279 280 282 286 287 288 288 289 289 290 289 286 285 284 283 282 281 281 281 282 281 281 280 280 280 279 279 278 281
273 274 274 274 274 274 274 274 274 274 275 275 275 275 276 276 276 277 278 278 277 276 275 275 275 275 276 277 277 277 277 277 278 278 278 278 278 280 280 280 279 280 282 285 287 288 288 289 290 290 290 287 284 283 282 282 281 280 281 281 281 281 280 280 280 280 280 280 283
274 274 274 274 274 275 275 275 275 275 275 275 275 275 276 276 277 278 278 278 277 276 276 276 275 276 277 279 278 277 277 277 277 278 278 279 280 281 282 281 280 280 282 285 286 288 288 289 290 291 290 287 284 283 282 281 280 280 280 280 280 280 280 280 280 280 280 280 281
275 275 275 275 275 275 275 275 275 275 275 275 275 276 277 277 278 277 277 277 276 276 276 276 276 276 277 279 278 277 276 277 277 277 278 279 280 281 282 280 279 279 280 283 286 287 288 290 290 291 290 288 284 283 282 281 280 280 279 279 279 280 280 280 280 280 280 280 278
Wind_Speed
3 3 3 3 3 3 3 3 4 4 4 3 4 4 4 4 4 4 4 4 4 4 4 4 5 5 6 7 8 8 8 8 8 9 10 10 9 9 8 8 8 8 8 9 9 9 9 9 8 7 6 6 6 6 6 6 8 8 9 9 9 9 10 11 11 12 12 12 10
3 3 4 4 5 4 3 3 4 4 4 3 3 4 4 4 4 4 4 4 4 4 4 4 5 5 6 8 8 8 8 8 9 9 9 9 9 8 8 7 7 8 8 9 9 8 8 9 9 8 6 5 5 5 6 6 7 8 9 10 9 9 9 10 10 11 11 11 10
3 3 3 3 3 3 3 3 3 4 4 4 4 4 4 4 4 4 5 5 5 5 5 5 5 6 7 8 7 7 7 8 9 9 9 8 8 8 8 7 8 8 8 8 8 8 9 9 9 8 7 6 5 5 6 6 6 7 8 9 8 8 8 8 9 10 10 9 10
3 3 3 3 3 4 4 3 4 4 4 4 4 4 4 4 4 4 5 5 5 5 5 5 6 6 6 7 7 7 8 8 9 9 9 9 9 9 9 8 8 8 8 8 8 9 9 10 8 7 7 6 6 5 5 5 6 6 7 7 7 7 8 8 8 8 8 8 9
3 3 3 3 4 4 4 3 4 4 4 4 4 4 4 4 4 5 5 5 5 5 6 6 6 7 7 7 8 8 8 9 10 10 9 9 9 9 9 8 8 8 8 8 9 9 10 10 8 7 6 6 5 5 5 6 6 6 6 6 6 6 7 7 7 7 7 7 8
3 3 2 3 3 3 3 3 4 4 4 4 4 5 5 4 5 5 5 6 6 7 7 8 8 8 7 7 8 8 8 8 8 8 8 9 9 9 9 9 8 8 8 8 9 9 9 9 8 7 7 6 5 5 6 6 6 6 6 6 7 6 6 7 7 7 7 8 9
2 2 2 3 3 3 4 4 4 4 4 4 5 6 6 6 6 7 7 7 7 7 7 8 7 7 7 7 8 8 8 8 8 8 8 8 9 9 9 9 9 8 8 8 9 9 9 8 7 7 7 7 6 6 7 7 6 7 7 7 7 6 6 7 6 7 8 9 10
2 2 3 3 4 4 4 4 4 4 4 4 5 6 7 8 8 8 8 8 7 6 6 6 6 7 8 8 8 8 8 8 8 8 8 8 9 9 9 9 9 9 8 8 8 8 8 8 7 7 7 7 7 7 8 8 8 8 8 8 7 6 6 6 6 6 8 9 10
2 3 3 3 4 4 5 5 5 5 5 5 6 7 8 8 9 9 8 7 7 7 6 6 7 8 8 9 9 8 8 8 8 8 8 8 9 9 9 9 9 8 8 8 8 9 9 8 7 7 7 7 7 8 9 9 9 9 8 8 8 7 7 7 7 8 8 9 10
3 3 3 3 4 4 5 5 5 5 5 6 7 7 8 10 10 8 7 6 7 7 6 6 7 8 9 9 9 8 8 8 8 8 8 8 9 9 9 8 8 8 8 8 8 8 8 7 7 7 7 8 9 10 10 10 9 9 8 7 7 9 10 9 9 9 9 9 10
3 3 3 3 4 4 4 4 4 5 5 6 7 7 8 9 8 8 7 7 7 7 7 7 8 8 9 8 8 8 8 8 8 8 8 9 9 9 9 8 8 8 8 8 8 8 7 7 8 9 9 10 10 10 10 10 10 10 9 8 8 10 11 11 10 9 9 9 10
3 3 3 3 4 4 4 4 4 4 5 6 7 7 7 7 7 7 7 7 7 8 8 7 8 8 8 8 8 8 8 8 8 9 9 9 9 9 9 8 8 8 8 8 8 7 7 8 8 10 11 11 10 9 10 10 10 10 10 10 10 10 10 11 11 10 9 9 10
3 3 3 3 3 3 4 4 4 4 5 6 6 6 6 6 7 7 7 7 7 7 7 7 8 8 8 8 8 8 8 9 9 9 9 9 9 9 9 8 8 8 8 8 8 8 8 8 9 10 11 12 11 10 10 11 11 11 11 11 10 10 10 11 11 11 10 10 10
3 3 3 3 3 3 3 4 4 4 5 6 6 6 6 6 6 6 6 7 7 7 7 7 7 7 8 8 9 9 9 9 10 10 10 10 9 9 9 8 8 8 8 8 9 9 9 9 10 10 11 12 12 12 12 11 11 11 11 11 10 10 11 11 11 11 11 11 11
3 3 3 3 3 3 3 4 4 4 5 5 6 5 5 5 6 6 6 7 7 7 7 7 7 8 8 9 9 10 10 10 10 10 10 10 10 10 9 9 9 9 9 9 9 9 9 10 10 11 11 12 12 12 12 11 11 11 11 10 10 10 10 11 11 11 11 11 11
3 3 3 3 3 3 3 4 3 4 4 5 5 5 5 5 6 6 7 7 7 7 7 7 7 8 8 9 10 10 10 10 10 10 10 10 10 10 10 10 10 10 9 9 10 10 10 10 10 11 11 12 12 12 12 12 12 11 11 10 10 9 10 11 11 11 11 11 11
4 3 3 3 3 3 4 4 4 4 4 5 6 6 6 6 5 6 7 7 7 7 7 8 8 8 8 9 9 9 9 10 10 10 10 10 10 10 11 11 11 10 10 9 10 10 11 11 11 11 11 12 12 12 12 12 11 11 11 10 9 9 10 11 12 11 11 11 11
4 3 3 3 3 4 4 4 4 5 5 6 6 6 6 6 6 6 7 7 7 8 8 9 8 8 8 9 9 9 9 9 10 10 10 10 10 11 11 12 11 10 10 10 10 11 11 12 12 12 12 12 12 12 12 12 11 11 10 10 10 10 11 12 12 11 10 10 10
4 3 3 3 4 4 4 5 5 5 6 6 6 6 6 6 7 7 7 7 7 8 8 9 9 8 9 9 9 9 9 9 10 10 10 10 11 11 12 12 11 11 10 10 10 11 11 12 12 13 13 13 13 13 12 12 11 10 10 9 9 10 11 12 12 11 10 9 9
4 3 3 3 4 4 4 4 5 5 5 6 6 7 7 7 7 7 7 7 8 8 8 8 9 9 9 9 9 9 9 9 9 10 11 11 11 11 12 12 11 11 10 10 10 11 11 12 12 13 14 15 15 15 14 12 10 9 9 8 9 11 12 13 11 10 9 9 8
4 4 4 3 3 3 4 4 4 5 6 6 7 7 7 7 7 7 7 8 8 7 7 8 8 9 9 9 10 10 9 9 9 10 10 11 11 12 11 11 11 10 10 10 10 10 11 11 12 13 14 15 16 16 14 12 9 8 8 8 10 11 12 12 11 10 9 9 8
4 4 4 3 3 3 4 4 5 5 6 6 7 7 7 7 7 7 7 7 7 7 7 8 8 9 9 9 10 10 10 9 10 10 10 10 11 11 11 10 10 10 10 10 10 10 11 11 12 14 14 15 16 15 14 10 8 8 8 9 11 12 12 12 10 10 9 9 8
4 3 3 3 3 4 5 5 5 6 6 7 7 7 7 7 7 7 7 6 6 7 7 7 8 8 9 9 9 10 10 10 11 11 11 11 10 10 10 9 9 10 10 10 10 10 10 11 12 13 14 14 14 13 11 9 8 8 8 10 11 11 12 11 10 10 9 9 8
3 3 3 3 3 4 4 4 5 6 6 7 7 7 7 8 7 7 7 7 7 7 7 7 7 8 9 9 9 10 10 11 11 11 11 11 10 10 10 9 9 9 9 9 10 11 12 12 11 12 12 12 11 9 8 7 8 8 8 9 10 10 11 11 10 10 10 9 8
3 3 3 3 3 3 4 5 5 6 7 7 7 7 7 7 7 6 7 7 7 8 8 8 8 8 8 8 9 9 9 10 10 10 10 10 10 10 9 9 9 8 8 9 15 19 21 20 16 13 11 10 9 7 7 8 8 8 7 7 8 9 10 10 11 10 10 9 8
4 3 3 3 3 4 4 5 6 7 7 7 7 7 7 7 6 6 6 7 7 8 8 8 8 8 8 8 8 8 8 8 8 9 9 10 10 10 10 9 8 7 8 11 18 22 25 25 23 20 15 11 9 7 6 7 8 7 7 7 8 9 10 10 11 11 10 9 7
4 4 3 3 3 4 5 6 6 7 7 7 7 7 7 6 6 6 6 7 7 7 7 7 7 7 8 7 7 8 8 8 8 8 9 9 10 10 10 9 8 7 9 15 21 24 25 25 25 24 20 15 11 8 6 5 5 5 6 7 8 9 10 10 11 10 9 8 6
4 3 2 3 4 5 6 6 6 7 7 7 7 7 6 6 6 7 7 7 7 7 6 6 6 6 5 5 6 7 8 8 8 8 8 9 9 10 10 9 9 9 13 19 23 25 25 25 25 25 23 19 13 9 5 3 3 4 5 7 8 9 9 9 9 9 8 7 6
2 2 2 3 4 5 6 6 7 7 7 7 7 6 6 6 6 7 7 7 7 6 6 6 5 5 4 5 6 7 8 8 8 8 8 8 9 10 10 10 10 12 17 23 24 25 25 25 25 25 24 22 14 8 3 1 3 5 6 7 7 8 8 8 7 7 7 7 6
2 2 3 4 5 6 6 7 7 7 7 6 6 6 6 6 7 7 7 7 7 6 6 5 5 5 6 7 7 7 7 8 8 7 8 9 10 10 11 11 11 13 17 22 24 25 25 25 25 25 24 24 17 9 2 3 5 6 6 7 7 8 8 8 8 8 8 7 7
3 3 4 5 5 6 6 7 7 7 7 6 6 6 6 7 7 7 7 6 6 7 7 6 6 7 7 7 6 7 7 8 8 8 8 9 10 11 11 12 12 13 17 22 24 25 25 25 25 25 25 25 19 11 4 4 5 5 6 7 8 8 8 8 8 8 8 8 7
4 4 4 5 6 6 7 7 7 7 7 7 7 7 7 7 7 6 6 6 6 6 6 6 6 7 7 7 7 7 8 8 9 9 9 9 10 11 11 12 12 14 17 22 24 25 25 25 25 25 26 26 21 13 6 4 4 5 7 8 9 9 9 8 8 8 8 8 7
4 5 5 6 6 6 7 7 7 7 7 7 7 7 7 7 6 6 6 6 6 6 6 6 6 6 6 7 7 7 8 8 9 10 10 10 11 11 12 12 12 14 18 23 25 26 26 26 26 26 27 28 21 14 8 5 4 5 7 9 10 10 9 9 8 8 8 7 7
5 5 5 6 6 6 7 7 7 7 7 7 7 7 6 6 6 6 6 6 5 5 5 5 5 6 6 6 6 7 8 9 9 9 10 10 11 11 12 11 10 14 19 24 26 26 26 27 27 27 28 27 19 13 9 6 5 6 8 10 10 9 8 7 7 7 7 7 6
6 6 6 6 6 7 7 7 7 7 7 7 7 7 6 6 6 6 6 6 6 6 5 5 5 5 6 6 6 7 8 10 9 10 10 10 11 11 12 12 12 16 21 25 26 27 27 27 27 28 27 24 15 10 8 7 6 7 9 12 11 9 7 5 6 6 6 6 6
7 6 6 6 7 7 7 7 7 7 6 6 7 7 6 6 6 6 6 7 6 6 5 5 5 5 6 6 6 7 8 9 9 10 10 10 11 11 12 13 14 17 21 25 26 27 27 27 28 28 26 19 12 8 6 6 6 7 9 11 10 8 6 5 5 5 5 5 6
7 7 7 7 7 7 7 7 7 7 6 6 6 6 6 6 6 6 6 6 6 6 5 5 6 6 6 6 7 7 7 8 8 9 10 11 10 11 12 13 14 16 19 23 25 27 27 28 28 28 24 15 9 6 6 6 6 7 9 10 8 5 4 5 5 4 4 4 6
7 7 7 7 7 7 7 7 7 7 7 7 6 6 5 5 5 5 5 5 5 5 5 5 6 6 6 7 7 8 8 8 8 9 10 10 10 11 11 13 13 14 17 22 25 27 27 28 28 26 21 12 7 5 5 6 6 8 9 9 6 4 3 4 3 2 3 4 8
8 8 8 8 8 8 7 7 7 7 7 6 6 6 6 5 5 5 5 5 5 5 5 6 6 7 7 8 8 8 8 8 9 9 9 10 10 12 13 13 13 14 16 21 24 26 27 27 27 24 19 10 6 5 5 5 6 7 8 8 6 4 3 3 2 2 2 4 9
9 8 8 9 8 8 8 8 7 7 6 6 6 6 5 5 5 5 5 5 5 5 5 6 6 7 8 8 8 8 8 8 8 9 9 9 11 13 15 14 13 14 16 20 23 25 26 27 25 21 16 8 5 4 5 5 5 6 7 7 6 5 4 3 2 2 2 4 7
9 9 9 9 9 9 8 8 7 7 6 5 6 6 5 5 5 5 5 5 5 5 5 6 7 7 8 8 8 8 8 8 8 8 8 9 11 13 14 12 12 13 14 17 21 24 26 25 22 19 15 9 5 4 4 4 4 5 6 7 7 7 6 4 2 2 2 4 4
Wind_Direction
221 223 226 232 237 242 245 251 259 263 264 264 267 269 273 278 281 282 282 281 281 280 281 283 284 286 288 289 292 295 298 301 303 304 305 306 307 308 311 313 316 320 322 322 321 319 317 316 314 312 309 308 309 311 312 314 316 318 319 320 320 318 316 313 310 310 311 313 313
227 228 236 246 252 254 254 256 260 263 265 267 270 273 277 280 281 281 280 277 276 277 279 282 284 286 287 290 293 296 298 300 301 303 304 305 305 307 309 311 314 318 320 320 319 318 316 315 313 310 307 305 308 311 313 315 317 319 320 321 320 318 316 314 312 313 314 315 317
226 229 235 242 251 255 257 259 261 264 268 272 275 278 281 281 280 279 278 275 275 277 280 284 286 287 289 291 293 296 298 299 301 303 304 304 305 306 307 308 311 314 316 317 317 316 314 315 312 308 305 304 308 310 312 315 319 320 321 321 319 318 316 313 314 315 316 318 320
224 225 229 233 239 244 249 256 263 268 272 276 279 281 281 279 278 277 276 276 277 280 282 284 287 289 291 292 294 296 299 301 303 304 304 305 304 304 304 305 308 310 312 313 313 313 313 314 311 307 303 301 304 306 311 316 320 321 320 319 317 315 313 311 314 316 318 318 319
225 222 223 227 237 244 250 257 264 269 273 277 280 281 281 279 279 278 278 280 281 282 284 286 288 290 291 293 296 299 300 301 304 304 304 304 303 303 303 303 305 306 308 309 310 311 312 314 311 305 301 299 302 305 308 313 318 318 317 315 314 312 311 311 313 315 317 316 318
226 228 229 233 244 251 256 261 264 268 271 276 277 278 279 279 279 281 282 283 283 285 286 288 290 291 294 296 298 299 300 300 302 302 301 301 301 301 302 302 302 303 304 306 307 309 311 314 310 306 303 303 303 305 309 314 316 315 313 312 311 310 309 310 311 313 315 315 316
224 234 242 250 253 257 260 263 267 269 272 275 275 275 276 277 279 280 281 283 286 287 288 290 291 293 295 297 297 297 298 299 299 299 299 300 300 301 302 302 302 302 302 303 305 307 309 311 309 306 306 308 308 309 311 314 313 312 310 309 308 307 307 307 308 310 312 312 313
227 236 244 250 253 256 259 261 264 267 270 272 273 274 276 278 279 281 282 284 286 287 288 290 290 291 293 294 296 297 298 299 298 298 298 298 299 300 301 301 301 301 300 301 303 305 307 308 307 305 306 309 308 309 310 310 309 307 306 305 305 305 305 304 305 306 308 309 310
229 236 241 246 249 252 255 257 260 264 268 271 273 275 278 280 282 283 284 285 286 287 289 290 291 292 293 294 296 297 298 298 297 296 296 297 298 299 300 300 300 300 300 301 302 304 305 305 304 303 303 305 306 306 305 306 304 303 303 302 303 304 304 303 303 304 305 306 306
230 234 239 244 249 254 258 261 265 268 271 274 275 277 280 283 284 285 286 286 288 289 290 290 293 294 295 296 297 297 296 294 294 294 295 296 297 297 298 298 299 299 301 302 303 304 304 303 301 300 300 301 302 302 301 301 300 300 301 301 303 303 303 303 303 303 304 304 303
232 235 238 242 250 256 262 269 272 274 275 275 276 278 280 283 284 285 286 287 289 290 291 291 294 296 296 296 296 295 294 293 294 295 295 295 295 295 295 295 296 298 300 301 302 303 303 301 298 297 297 298 299 299 299 298 298 298 299 299 301 302 303 303 303 303 303 301 301
235 237 240 243 249 256 263 268 271 273 273 274 276 277 278 279 279 282 285 288 290 291 292 294 295 296 296 295 294 293 293 293 294 295 294 294 293 293 293 294 295 297 298 300 301 300 299 296 295 295 296 297 297 297 297 297 297 297 297 298 300 301 302 302 302 302 301 301 300
236 240 243 247 251 255 260 265 267 269 271 272 274 275 276 278 281 284 288 290 291 293 294 295 295 295 294 293 293 293 294 294 294 294 294 293 293 293 294 294 295 296 296 297 297 296 294 293 292 292 293 295 295 294 294 294 294 294 294 295 297 299 299 299 300 300 300 301 300
237 240 244 247 250 253 257 262 265 268 269 271 273 275 279 282 286 289 292 292 292 293 294 295 294 294 293 293 293 294 294 294 294 293 292 292 292 293 294 294 294 294 295 295 294 293 291 290 290 290 290 291 291 291 291 291 290 289 288 290 292 294 296 296 297 298 299 300 300
240 243 244 246 250 252 255 260 263 266 270 272 275 278 282 286 289 291 292 291 291 292 293 293 292 292 292 292 293 293 293 293 293 292 292 292 292 294 294 294 294 293 292 291 291 290 289 288 287 287 287 287 287 287 287 286 285 284 283 284 286 289 291 292 293 295 296 297 298
240 243 245 247 249 253 256 259 263 268 272 275 278 282 285 286 287 288 290 289 290 291 291 291 291 291 291 291 291 291 292 292 291 291 291 292 293 294 295 294 293 291 289 288 289 289 288 287 286 285 285 283 283 283 282 281 281 280 280 281 283 285 286 287 289 291 292 293 294
237 240 242 244 249 253 258 262 265 270 274 277 280 282 283 284 285 286 287 288 289 290 290 290 290 291 291 291 291 291 290 290 290 290 291 292 293 294 293 292 291 289 287 286 286 287 287 287 287 285 284 281 279 277 276 275 275 276 278 280 282 283 283 284 285 286 287 288 288
233 235 238 241 246 252 257 262 267 270 273 276 278 279 280 280 282 283 285 286 287 288 289 290 290 291 291 291 291 291 290 289 290 290 291 292 292 292 291 290 288 287 285 284 284 285 286 287 287 286 284 281 278 274 271 269 269 272 275 279 281 282 281 280 280 280 279 280 284
231 234 236 240 245 252 257 263 267 270 273 274 276 277 278 278 279 281 283 284 285 287 289 291 292 292 292 292 291 291 291 290 290 291 291 291 291 289 288 287 286 285 284 283 283 283 284 286 286 285 284 282 278 274 270 264 264 267 271 276 279 279 278 276 274 272 271 273 281
231 234 237 240 245 251 257 263 268 270 272 274 275 276 277 278 278 280 281 282 285 286 288 291 293 293 293 293 292 292 291 291 290 290 290 289 288 287 285 285 285 285 284 284 283 283 284 284 284 284 283 281 279 275 270 263 259 260 265 272 274 274 273 272 270 269 270 274 281
231 233 236 239 244 250 256 261 265 269 271 272 273 274 275 277 278 278 279 281 283 286 288 290 291 292 292 293 292 291 290 290 289 287 286 286 285 284 283 283 285 286 286 286 285 284 284 283 282 281 281 280 279 276 271 261 253 253 258 265 268 270 271 271 271 271 273 277 281
229 232 235 238 244 250 257 262 265 268 270 272 272 274 274 276 277 277 277 280 284 286 287 288 288 289 289 289 289 289 288 288 287 285 284 283 282 282 283 285 286 288 288 287 287 286 284 282 279 278 277 277 277 274 268 255 244 243 251 260 266 269 272 273 274 274 276 277 279
225 229 235 241 247 255 261 264 267 269 271 272 272 273 274 275 275 277 278 282 284 286 286 286 286 286 285 285 285 285 286 286 285 283 282 281 282 283 285 287 289 288 288 287 287 285 283 281 277 275 274 275 275 272 264 246 235 236 245 256 264 270 273 276 276 276 276 276 276
222 230 237 242 248 255 260 265 268 270 271 271 271 272 272 273 275 277 280 282 283 283 283 284 284 283 283 283 283 282 282 283 283 283 283 283 285 287 289 290 290 288 287 286 289 290 289 286 282 279 279 279 277 270 257 237 231 232 241 253 264 270 275 277 276 276 276 275 274
224 231 238 243 248 255 261 266 267 268 268 268 269 270 271 272 275 278 281 282 282 282 281 281 282 283 283 283 281 280 279 280 282 285 287 289 291 292 293 293 291 289 288 286 292 294 296 297 297 296 294 292 287 273 251 232 230 232 241 254 264 271 275 277 277 276 274 272 270
222 229 235 241 250 258 263 266 266 266 266 267 268 269 270 272 275 277 280 282 282 282 281 282 282 283 284 283 282 282 282 282 284 287 290 293 294 295 295 294 293 290 288 289 294 297 300 302 304 304 304 303 300 285 257 234 229 231 241 255 264 269 272 274 274 274 273 270 266
219 225 232 242 254 262 264 265 265 266 266 267 268 269 270 272 275 278 280 280 281 282 282 283 281 284 285 286 286 286 286 287 288 290 291 292 294 295 295 295 293 290 289 292 297 300 303 305 307 308 308 307 306 300 281 246 226 226 236 250 259 263 266 267 269 270 271 270 267
214 220 235 254 262 264 265 266 266 266 267 267 268 269 271 275 278 279 280 280 281 282 283 283 281 282 286 287 287 287 288 289 290 292 292 293 294 295 296 295 294 292 293 297 301 303 305 306 307 308 309 310 309 309 303 261 216 216 230 243 251 256 260 263 266 268 270 271 270
212 228 247 258 261 263 265 266 267 267 268 268 270 272 275 279 280 281 282 282 283 283 283 283 284 285 287 287 288 289 290 291 292 294 295 296 296 296 296 295 294 294 297 301 303 305 306 307 308 309 310 312 313 315 313 204 199 212 225 235 242 248 255 262 267 271 273 274 273
212 230 242 251 256 260 263 265 267 268 270 271 273 275 278 280 281 281 281 282 281 281 282 283 286 289 289 289 291 293 294 295 295 296 297 298 298 298 297 297 296 296 298 302 304 305 306 308 310 311 312 313 312 310 287 192 204 215 226 234 239 245 252 262 269 273 276 277 276
212 228 241 250 256 260 262 265 267 269 271 273 275 277 278 280 279 279 279 279 279 281 283 285 288 288 289 290 292 294 295 296 297 298 298 297 298 298 298 298 296 296 298 302 304 306 308 311 313 314 314 313 312 308 282 212 213 221 231 237 240 243 249 258 266 271 274 276 276
213 228 239 248 253 258 261 265 267 270 271 272 273 275 276 277 276 277 278 279 282 284 286 288 288 289 289 291 293 294 295 296 298 298 299 299 299 299 299 299 297 297 299 303 305 308 310 313 315 316 315 314 313 310 297 246 231 232 238 242 241 242 245 251 259 266 270 274 273
213 226 235 244 250 256 260 264 266 268 269 270 271 273 274 276 277 279 280 281 283 284 285 285 286 288 290 292 294 295 296 296 297 298 299 300 300 299 299 299 297 298 301 304 307 309 312 315 316 315 315 315 316 316 310 286 265 254 251 249 245 242 241 245 253 262 268 272 272
211 222 233 241 248 254 259 262 263 264 266 268 270 271 274 276 279 281 282 283 283 283 283 283 284 286 288 290 292 294 296 297 298 299 299 299 299 299 299 299 297 300 302 305 308 310 312 314 314 314 315 317 321 323 321 305 289 274 266 262 254 246 239 239 250 260 268 273 275
208 218 229 238 244 250 254 257 259 261 264 267 270 273 274 276 278 279 281 284 286 285 285 284 284 286 287 289 290 292 294 296 297 298 298 298 298 299 299 298 296 299 303 306 308 310 311 312 312 313 315 320 325 329 326 313 296 282 275 271 265 255 242 237 250 260 269 276 280
206 215 224 234 240 246 250 254 257 260 264 268 271 273 275 276 276 278 281 285 287 287 287 287 288 289 290 291 290 291 292 293 294 295 297 297 298 298 298 298 297 299 303 306 308 310 311 311 311 313 316 323 329 332 330 320 308 297 291 286 279 268 251 242 251 260 271 282 283
208 215 223 231 238 244 248 252 256 260 264 267 270 271 274 275 277 278 280 285 287 287 287 287 288 289 288 289 289 289 289 290 292 294 296 297 298 298 298 298 297 300 303 306 309 310 310 311 312 316 321 329 334 336 334 331 326 323 319 312 302 283 256 246 252 261 276 287 289
211 216 222 230 237 243 247 251 254 258 261 264 266 268 271 274 276 278 281 284 284 286 286 287 288 287 286 287 288 289 289 290 293 295 296 297 298 298 299 299 300 301 304 307 309 311 312 313 316 322 328 340 346 346 340 337 338 340 340 339 329 302 259 249 254 269 288 293 299
212 216 220 227 234 240 244 248 250 253 256 260 263 267 270 273 275 277 279 281 281 282 285 287 287 286 287 290 292 293 294 294 295 295 296 297 299 302 304 304 304 304 305 307 310 312 315 318 324 331 340 356 0 353 342 338 341 344 346 347 339 314 277 264 273 290 299 293 304
212 214 218 223 229 234 239 242 245 247 251 256 261 265 269 271 273 275 278 279 280 281 283 286 287 288 291 295 296 298 298 298 297 296 297 299 301 306 309 308 306 304 305 307 312 315 319 325 333 342 354 12 9 356 341 337 341 345 348 349 344 332 315 299 303 303 294 286 301
211 213 216 220 225 228 232 237 242 245 250 255 259 264 267 270 273 275 277 279 280 282 285 288 289 291 293 298 299 300 300 300 299 298 300 304 305 308 310 308 305 304 305 308 314 319 325 332 342 352 2 13 10 355 340 335 341 348 353 355 352 348 344 338 329 307 289 284 292